VJT402 EGGW-BIKF

Flight info

Callsign VJT402
Flight time N/A
Altitude 40000
Route OLNEY T420 TNT UN57 POL UN601 RIBEL DCT ERSON DCT BARKU DCT RATSU/M080F400 DCT ALDAN DCT ASRUN ASRUN4N
Aircraft CL60/M-ICAO/HB1D1

Departure

Time N/A
Airport London Luton Airport (EGGW)

Arrival

Time 2026-05-03 20:54
Airport Keflavik International Airport (BIKF)
Time Latitude Longitude Altitude Speed Heading
2026-05-03 20:15 62.51203 -16.33709 39945 ft 431 kts 294°
2026-05-03 20:15 62.53646 -16.45657 39875 ft 430 kts 294°
2026-05-03 20:16 62.56069 -16.57584 39882 ft 431 kts 294°
2026-05-03 20:16 62.58483 -16.69538 39900 ft 430 kts 294°
2026-05-03 20:17 62.60879 -16.81465 39921 ft 429 kts 294°
2026-05-03 20:17 62.63251 -16.93345 39908 ft 431 kts 294°
2026-05-03 20:18 62.65652 -17.05446 39898 ft 431 kts 294°
2026-05-03 20:18 62.68066 -17.17687 39909 ft 433 kts 294°
2026-05-03 20:19 62.70455 -17.29869 39878 ft 433 kts 294°
2026-05-03 20:19 62.72835 -17.42083 39966 ft 433 kts 294°
2026-05-03 20:20 62.75216 -17.54372 39903 ft 433 kts 294°
2026-05-03 20:20 62.77564 -17.66566 39889 ft 431 kts 293°
2026-05-03 20:21 62.79924 -17.78906 39908 ft 432 kts 293°
2026-05-03 20:21 62.82280 -17.91295 39931 ft 433 kts 293°
2026-05-03 20:22 62.84623 -18.03695 39884 ft 435 kts 293°
2026-05-03 20:22 62.86947 -18.16072 39912 ft 434 kts 293°
2026-05-03 20:23 62.89253 -18.28430 39939 ft 434 kts 293°
2026-05-03 20:23 62.91562 -18.40877 39921 ft 435 kts 293°
2026-05-03 20:24 62.93848 -18.53288 39894 ft 435 kts 293°
2026-05-03 20:24 62.96128 -18.65737 39914 ft 434 kts 292°
2026-05-03 20:25 62.98593 -18.77747 39846 ft 436 kts 301°
2026-05-03 20:25 63.00303 -18.83271 39961 ft 435 kts 305°
2026-05-03 20:25 63.02114 -18.88756 39895 ft 435 kts 305°
2026-05-03 20:26 63.05667 -18.99572 39902 ft 435 kts 305°
2026-05-03 20:26 63.09069 -19.09988 39970 ft 434 kts 305°
2026-05-03 20:27 63.12574 -19.20771 39919 ft 423 kts 304°
2026-05-03 20:27 63.14244 -19.25923 39912 ft 407 kts 305°
2026-05-03 20:27 63.15860 -19.30924 39884 ft 389 kts 304°
2026-05-03 20:27 63.17382 -19.35639 39909 ft 374 kts 305°
2026-05-03 20:28 63.18863 -19.40242 39931 ft 358 kts 305°
2026-05-03 20:28 63.20283 -19.44660 39726 ft 349 kts 304°
2026-05-03 20:28 63.21687 -19.49042 39403 ft 348 kts 304°
2026-05-03 20:28 63.23095 -19.53444 38963 ft 345 kts 304°
2026-05-03 20:29 63.24463 -19.57731 38619 ft 342 kts 304°
2026-05-03 20:29 63.25848 -19.62076 38436 ft 337 kts 304°
2026-05-03 20:29 63.27201 -19.66331 38176 ft 333 kts 303°
2026-05-03 20:29 63.28539 -19.70547 37844 ft 330 kts 304°
2026-05-03 20:30 63.29863 -19.74728 36727 ft 351 kts 304°
2026-05-03 20:30 63.31261 -19.79161 35253 ft 374 kts 304°
2026-05-03 20:30 63.32754 -19.83895 33682 ft 378 kts 303°
2026-05-03 20:30 63.34222 -19.88557 32619 ft 366 kts 303°
2026-05-03 20:31 63.35643 -19.93076 31618 ft 355 kts 303°
2026-05-03 20:31 63.37045 -19.97542 30603 ft 346 kts 303°
2026-05-03 20:31 63.38388 -20.01833 29622 ft 338 kts 303°
2026-05-03 20:31 63.39709 -20.06058 28633 ft 331 kts 303°
2026-05-03 20:32 63.41009 -20.10227 27618 ft 325 kts 303°
2026-05-03 20:32 63.42282 -20.14317 26611 ft 320 kts 303°
2026-05-03 20:32 63.43555 -20.18416 25586 ft 316 kts 303°
2026-05-03 20:32 63.44793 -20.22405 24602 ft 312 kts 303°
2026-05-03 20:33 63.46016 -20.26356 23580 ft 308 kts 303°
2026-05-03 20:33 63.47243 -20.30326 22604 ft 310 kts 303°
2026-05-03 20:33 63.48483 -20.34348 21579 ft 310 kts 303°
2026-05-03 20:33 63.49720 -20.38365 20518 ft 309 kts 303°
2026-05-03 20:34 63.50941 -20.42339 19539 ft 308 kts 303°
2026-05-03 20:34 63.52156 -20.46298 18535 ft 308 kts 303°
2026-05-03 20:34 63.53401 -20.50365 17460 ft 308 kts 303°
2026-05-03 20:34 63.54623 -20.54363 16438 ft 306 kts 303°
2026-05-03 20:35 63.55842 -20.58353 15434 ft 306 kts 304°
2026-05-03 20:35 63.57052 -20.62268 14432 ft 305 kts 304°
2026-05-03 20:35 63.58264 -20.66189 13414 ft 305 kts 304°
2026-05-03 20:35 63.59462 -20.70069 12431 ft 304 kts 304°
2026-05-03 20:36 63.60671 -20.73993 11379 ft 303 kts 304°
2026-05-03 20:36 63.61879 -20.77918 10464 ft 299 kts 305°
2026-05-03 20:36 63.63031 -20.81673 10028 ft 282 kts 305°
2026-05-03 20:36 63.64115 -20.85212 9929 ft 259 kts 305°
2026-05-03 20:37 63.65085 -20.88381 9920 ft 234 kts 305°
2026-05-03 20:37 63.65976 -20.91296 9735 ft 219 kts 305°
2026-05-03 20:37 63.66838 -20.94118 9332 ft 220 kts 305°
2026-05-03 20:37 63.67713 -20.96983 9008 ft 217 kts 305°
2026-05-03 20:38 63.68580 -20.99830 8612 ft 218 kts 305°
2026-05-03 20:38 63.69457 -21.02710 8222 ft 219 kts 305°
2026-05-03 20:38 63.70335 -21.05600 7820 ft 219 kts 305°
2026-05-03 20:38 63.71218 -21.08509 7416 ft 220 kts 305°
2026-05-03 20:39 63.72102 -21.11422 7028 ft 220 kts 305°
2026-05-03 20:39 63.72977 -21.14314 6617 ft 222 kts 306°
2026-05-03 20:39 63.73868 -21.17261 6251 ft 221 kts 306°
2026-05-03 20:39 63.74754 -21.20196 5890 ft 219 kts 306°
2026-05-03 20:40 63.75629 -21.23100 5520 ft 219 kts 306°
2026-05-03 20:40 63.76495 -21.25979 5114 ft 219 kts 306°
2026-05-03 20:40 63.77362 -21.28865 4959 ft 218 kts 306°
2026-05-03 20:40 63.78209 -21.31687 4949 ft 218 kts 306°
2026-05-03 20:41 63.79063 -21.34535 4961 ft 219 kts 306°
2026-05-03 20:41 63.79924 -21.37411 4964 ft 219 kts 306°
2026-05-03 20:41 63.80776 -21.40263 4962 ft 219 kts 306°
2026-05-03 20:41 63.81639 -21.43153 4959 ft 218 kts 306°
2026-05-03 20:42 63.82480 -21.45976 4961 ft 217 kts 306°
2026-05-03 20:42 63.83344 -21.48881 4958 ft 217 kts 306°
2026-05-03 20:42 63.84188 -21.51722 4975 ft 214 kts 306°
2026-05-03 20:42 63.85039 -21.54590 4959 ft 215 kts 306°
2026-05-03 20:43 63.85885 -21.57447 4955 ft 216 kts 306°
2026-05-03 20:43 63.86712 -21.60245 4677 ft 205 kts 306°
2026-05-03 20:43 63.87502 -21.62918 4088 ft 205 kts 307°
2026-05-03 20:43 63.88319 -21.65680 3962 ft 212 kts 306°
2026-05-03 20:44 63.89150 -21.68499 3942 ft 212 kts 306°
2026-05-03 20:44 63.89990 -21.71349 3966 ft 214 kts 306°
2026-05-03 20:44 63.90831 -21.74207 3964 ft 216 kts 306°
2026-05-03 20:44 63.91655 -21.77017 3732 ft 205 kts 306°
2026-05-03 20:45 63.92460 -21.79757 3462 ft 209 kts 306°
2026-05-03 20:45 63.93277 -21.82533 3475 ft 199 kts 306°
2026-05-03 20:45 63.94009 -21.85033 3500 ft 181 kts 306°
2026-05-03 20:45 63.94701 -21.87386 3489 ft 177 kts 307°
2026-05-03 20:46 63.95401 -21.89767 3484 ft 177 kts 306°
2026-05-03 20:46 63.96088 -21.92108 3481 ft 176 kts 307°
2026-05-03 20:46 63.96750 -21.94371 3279 ft 166 kts 306°
2026-05-03 20:46 63.97389 -21.96551 2972 ft 167 kts 307°
2026-05-03 20:47 63.98043 -21.98829 2967 ft 173 kts 303°
2026-05-03 20:47 63.98360 -22.01588 2973 ft 180 kts 278°
2026-05-03 20:47 63.98374 -22.04490 2984 ft 181 kts 274°
2026-05-03 20:47 63.98382 -22.07333 2979 ft 173 kts 275°
2026-05-03 20:48 63.98391 -22.10017 2631 ft 168 kts 275°
2026-05-03 20:48 63.98404 -22.12758 2574 ft 173 kts 275°
2026-05-03 20:48 63.98417 -22.15549 2581 ft 177 kts 275°
2026-05-03 20:48 63.98425 -22.18359 2590 ft 170 kts 275°
2026-05-03 20:49 63.98425 -22.20814 2633 ft 142 kts 276°
2026-05-03 20:49 63.98425 -22.22924 2631 ft 124 kts 276°
2026-05-03 20:49 63.98435 -22.24882 2590 ft 122 kts 277°
2026-05-03 20:49 63.98446 -22.26833 2586 ft 121 kts 277°
2026-05-03 20:50 63.98454 -22.28746 2587 ft 121 kts 277°
2026-05-03 20:50 63.98460 -22.30696 2590 ft 120 kts 277°
2026-05-03 20:50 63.98466 -22.32649 2508 ft 123 kts 276°
2026-05-03 20:50 63.98470 -22.34621 2343 ft 120 kts 276°
2026-05-03 20:51 63.98473 -22.36556 2176 ft 121 kts 276°
2026-05-03 20:51 63.98476 -22.38473 2016 ft 120 kts 277°
2026-05-03 20:51 63.98479 -22.40377 1838 ft 117 kts 277°
2026-05-03 20:51 63.98481 -22.42270 1663 ft 116 kts 277°
2026-05-03 20:52 63.98485 -22.44128 1526 ft 117 kts 277°
2026-05-03 20:52 63.98489 -22.46012 1357 ft 116 kts 277°
2026-05-03 20:52 63.98491 -22.47880 1206 ft 117 kts 277°
2026-05-03 20:52 63.98494 -22.49782 1039 ft 117 kts 277°
2026-05-03 20:53 63.98494 -22.51671 888 ft 115 kts 276°
2026-05-03 20:53 63.98486 -22.53602 790 ft 124 kts 275°
2026-05-03 20:53 63.98480 -22.55616 652 ft 128 kts 276°
2026-05-03 20:53 63.98487 -22.57632 387 ft 121 kts 277°
2026-05-03 20:54 63.98502 -22.59550 199 ft 119 kts 275°
2026-05-03 20:54 63.98510 -22.62206 138 ft 35 kts 272°
2026-05-03 20:54 63.98506 -22.62713 134 ft 32 kts 270°
2026-05-03 20:55 63.98563 -22.63110 131 ft 13 kts
2026-05-03 20:55 63.98655 -22.63051 131 ft 14 kts 14°
2026-05-03 20:55 63.98759 -22.62982 134 ft 16 kts 17°
2026-05-03 20:55 63.98873 -22.62897 135 ft 18 kts 17°
2026-05-03 20:56 63.99015 -22.62795 135 ft 25 kts 18°
2026-05-03 20:56 63.99197 -22.62683 135 ft 27 kts
2026-05-03 20:56 63.99314 -22.62754 135 ft 18 kts
2026-05-03 20:56 63.99450 -22.62710 135 ft 20 kts 16°
2026-05-03 20:57 63.99501 -22.62799 135 ft 11 kts 277°
2026-05-03 20:57 63.99509 -22.62822 135 ft 0 kts 355°